INDEX

Satellite information

Favourite Embed

Satellite Type and Status

PAYLOADIN ORBIT

Key statistics

Satellite INDEX at a glance.

Uptime

7418

Days in orbit

Revolutions

≈ 15.1

Per day

Orbit

SSO

Sun Synchronous Orbit

Inclination

98.0

Latest

Satellite identification and parameters

Extended collection of information and parameters for INDEX.

Object identification

Identified? True

Debris? False

Object name: INDEX

International designator: 2005-031B

Object number (NORAD): 28810

Object ID (CCSDS): 28810

Country: JAPAN (JPN)

Current information (Y/N): Y

RCS size: MEDIUM

Orbital parameters

Period: 95.461 minutes

Inclination: 97.9977 deg

SMA: 6918.993 km

Apoapsis: 555.56 km

Periapsis: 526.156 km

RAAN: 97.0952 deg

Eccentricy: 0.0021249

Argument of periapsis: 28.5863 deg

Mean anomaly: 331.6525 deg

Mean motion: 15.08476033 rev/day

Mean motion (dot): 0.00009456 rev/day2

B* drag term: 0.00060766624 1/REarth

Two-line elements (TLE)

Creation date: Dec. 12, 2025, 10:14 a.m.

Reference frame: TEME

Reference center: EARTH

Epoch: Dec. 12, 2025, 7:09 a.m. UTC

TLE line 0: 0 INDEX

TLE line 1: 1 28810U 05031B 25346.29796866 .00009456 00000-0 60767-3 0 9994

TLE line 2: 2 28810 97.9977 97.0952 0021249 28.5863 331.6525 15.08476033102792

Live tracking on map

Real-time ground track for satellite INDEX.

In-orbit conjunctions

There are no conjunctions computed for INDEX, at the moment. Check back to stay up to date, as we update our databases every day.

Go to all conjunctions

Associated space launch

The Optical Inter-orbit Communications Engineering Test Satellite (OICETS), also called Kirari, was an experimental satellite launched by JAXA to demonstrate interorbital communication between satellites through optical (laser) means.

INDEX was lifted into orbit during the mission ‘Dnepr | Kirari’, on board a Dnepr space rocket.

The launch took place on Aug. 23, 2005, 9:09 p.m. from 109/95.

For more information about the launch, click the button.

Launch to space Dnepr | Kirari
Dnepr | Kirari

Agency: N/A

Status: Launch Successful

Launch date: Aug. 23, 2005, 9:09 p.m. UTC

Rocket: Dnepr

Launch pad: 109/95

Location: Baikonur Cosmodrome, Republic of Kazakhstan

...

Latest news about this satellite

There are no fresh news available about this satellite. Check back as we update our databases every day.


Newsletter sign-up

Weekly statistics, charts and insights to help you stay on top of the space industry.